AMQ6019 EPKT-LIEO

Flight info

Callsign AMQ6019
Flight time 2h 6m
Altitude 36000
Route TUSIN DCT TOVKA DCT RADLY DCT RIFEN/N0448F350 DCT ARDAM DCT BIKTU DCT ELKAP DCT DEDOM DCT BATOX
Aircraft A321/M-SDE3FGHIRWY/LB1

Departure

Time 2026-05-04 12:27
Airport Katowice Wojciech Korfanty International Airport (EPKT)

Arrival

Time 2026-05-04 14:34
Airport Olbia Costa Smeralda Airport (LIEO)
Time Latitude Longitude Altitude Speed Heading
2026-05-04 12:03 50.47150 19.07695 983 ft 0 kts 180°
2026-05-04 12:18 50.47157 19.07695 983 ft 2 kts 180°
2026-05-04 12:18 50.47172 19.07695 983 ft 2 kts 180°
2026-05-04 12:18 50.47187 19.07695 983 ft 2 kts 180°
2026-05-04 12:18 50.47200 19.07695 983 ft 0 kts 180°
2026-05-04 12:19 50.47212 19.07693 983 ft 2 kts 160°
2026-05-04 12:19 50.47225 19.07681 983 ft 2 kts 135°
2026-05-04 12:19 50.47234 19.07662 983 ft 2 kts 109°
2026-05-04 12:19 50.47236 19.07646 983 ft 0 kts 92°
2026-05-04 12:20 50.47236 19.07634 983 ft 0 kts 89°
2026-05-04 12:21 50.47236 19.07636 983 ft 1 kts 89°
2026-05-04 12:22 50.47236 19.07669 983 ft 4 kts 89°
2026-05-04 12:22 50.47236 19.07738 983 ft 8 kts 90°
2026-05-04 12:22 50.47235 19.07842 983 ft 11 kts 90°
2026-05-04 12:22 50.47235 19.07975 983 ft 13 kts 90°
2026-05-04 12:23 50.47234 19.08126 983 ft 14 kts 90°
2026-05-04 12:23 50.47234 19.08295 985 ft 15 kts 90°
2026-05-04 12:23 50.47234 19.08474 985 ft 17 kts 90°
2026-05-04 12:23 50.47234 19.08670 986 ft 18 kts 90°
2026-05-04 12:24 50.47233 19.08868 989 ft 18 kts 90°
2026-05-04 12:24 50.47232 19.09063 992 ft 17 kts 90°
2026-05-04 12:24 50.47231 19.09260 993 ft 18 kts 90°
2026-05-04 12:24 50.47231 19.09461 997 ft 18 kts 90°
2026-05-04 12:25 50.47231 19.09656 1000 ft 17 kts 90°
2026-05-04 12:25 50.47231 19.09833 1006 ft 15 kts 91°
2026-05-04 12:25 50.47234 19.09996 1010 ft 14 kts 73°
2026-05-04 12:25 50.47290 19.10128 1012 ft 15 kts 54°
2026-05-04 12:26 50.47360 19.10276 1010 ft 18 kts 52°
2026-05-04 12:26 50.47444 19.10428 1009 ft 18 kts 27°
2026-05-04 12:26 50.47580 19.10410 1007 ft 21 kts 309°
2026-05-04 12:26 50.47595 19.10102 1002 ft 53 kts 269°
2026-05-04 12:27 50.47592 19.09098 985 ft 127 kts 270°
2026-05-04 12:27 50.47609 19.07460 1192 ft 163 kts 269°
2026-05-04 12:27 50.47635 19.05688 1870 ft 164 kts 265°
2026-05-04 12:27 50.47631 19.03922 2564 ft 165 kts 265°
2026-05-04 12:28 50.47624 19.02148 3008 ft 167 kts 265°
2026-05-04 12:28 50.47614 19.00234 3245 ft 182 kts 265°
2026-05-04 12:28 50.47608 18.98166 3521 ft 196 kts 266°
2026-05-04 12:28 50.47605 18.95963 3806 ft 210 kts 266°
2026-05-04 12:29 50.47597 18.93598 4031 ft 229 kts 263°
2026-05-04 12:29 50.47090 18.91180 4292 ft 241 kts 230°
2026-05-04 12:29 50.45703 18.89684 4645 ft 254 kts 200°
2026-05-04 12:29 50.43997 18.88885 5254 ft 259 kts 196°
2026-05-04 12:30 50.42252 18.88126 5930 ft 261 kts 197°
2026-05-04 12:30 50.40507 18.87313 6612 ft 263 kts 198°
2026-05-04 12:30 50.38730 18.86433 7301 ft 265 kts 199°
2026-05-04 12:30 50.36967 18.85524 7981 ft 267 kts 199°
2026-05-04 12:31 50.35172 18.84576 8660 ft 269 kts 199°
2026-05-04 12:31 50.33409 18.83631 9300 ft 271 kts 199°
2026-05-04 12:31 50.31638 18.82675 9921 ft 274 kts 200°
2026-05-04 12:31 50.29818 18.81689 10450 ft 280 kts 200°
2026-05-04 12:32 50.27948 18.80672 10727 ft 295 kts 200°
2026-05-04 12:32 50.23852 18.78439 11264 ft 324 kts 200°
2026-05-04 12:32 50.21670 18.77250 11645 ft 334 kts 200°
2026-05-04 12:33 50.19492 18.76067 12206 ft 336 kts 200°
2026-05-04 12:33 50.17271 18.74860 12807 ft 338 kts 200°
2026-05-04 12:33 50.15049 18.73652 13377 ft 340 kts 200°
2026-05-04 12:33 50.12808 18.72435 13925 ft 343 kts 200°
2026-05-04 12:34 50.10554 18.71213 14458 ft 345 kts 201°
2026-05-04 12:34 50.08266 18.69975 14983 ft 348 kts 201°
2026-05-04 12:34 50.05956 18.68724 15491 ft 351 kts 201°
2026-05-04 12:34 50.03654 18.67478 15980 ft 354 kts 201°
2026-05-04 12:35 50.01318 18.66215 16475 ft 357 kts 201°
2026-05-04 12:35 49.98951 18.64936 16955 ft 360 kts 201°
2026-05-04 12:35 49.96575 18.63654 17424 ft 362 kts 201°
2026-05-04 12:35 49.94217 18.62385 17878 ft 365 kts 201°
2026-05-04 12:36 49.91809 18.61087 18313 ft 368 kts 201°
2026-05-04 12:36 49.89398 18.59789 18732 ft 371 kts 201°
2026-05-04 12:36 49.86941 18.58405 19140 ft 374 kts 204°
2026-05-04 12:36 49.84598 18.56721 19545 ft 375 kts 209°
2026-05-04 12:37 49.82350 18.54678 19939 ft 378 kts 215°
2026-05-04 12:37 49.80169 18.52366 20333 ft 380 kts 216°
2026-05-04 12:37 49.78016 18.50036 20695 ft 384 kts 216°
2026-05-04 12:37 49.75829 18.47666 21059 ft 387 kts 216°
2026-05-04 12:38 49.73607 18.45261 21440 ft 390 kts 217°
2026-05-04 12:38 49.71394 18.42869 21814 ft 392 kts 216°
2026-05-04 12:38 49.69164 18.40463 22168 ft 396 kts 216°
2026-05-04 12:38 49.66888 18.38012 22523 ft 398 kts 216°
2026-05-04 12:39 49.64620 18.35572 22861 ft 401 kts 216°
2026-05-04 12:39 49.62326 18.33108 23202 ft 404 kts 216°
2026-05-04 12:39 49.60008 18.30621 23546 ft 407 kts 216°
2026-05-04 12:39 49.57690 18.28138 23894 ft 409 kts 216°
2026-05-04 12:40 49.55343 18.25627 24245 ft 411 kts 216°
2026-05-04 12:40 49.53007 18.23130 24597 ft 413 kts 216°
2026-05-04 12:40 49.50644 18.20607 24933 ft 415 kts 216°
2026-05-04 12:40 49.48255 18.18060 25254 ft 417 kts 216°
2026-05-04 12:41 49.45885 18.15536 25562 ft 419 kts 216°
2026-05-04 12:41 49.43498 18.12996 25866 ft 421 kts 216°
2026-05-04 12:41 49.41072 18.10418 26156 ft 424 kts 216°
2026-05-04 12:41 49.38643 18.07840 26448 ft 426 kts 216°
2026-05-04 12:42 49.36207 18.05257 26720 ft 428 kts 216°
2026-05-04 12:42 49.33777 18.02685 26986 ft 430 kts 216°
2026-05-04 12:42 49.31324 18.00092 27262 ft 432 kts 216°
2026-05-04 12:42 49.28833 17.97462 27516 ft 434 kts 216°
2026-05-04 12:43 49.26331 17.94823 27773 ft 436 kts 216°
2026-05-04 12:43 49.23826 17.92184 28026 ft 438 kts 216°
2026-05-04 12:43 49.21320 17.89549 28282 ft 440 kts 216°
2026-05-04 12:43 49.18820 17.86922 28528 ft 441 kts 216°
2026-05-04 12:44 49.16295 17.84273 28767 ft 443 kts 216°
2026-05-04 12:44 49.13765 17.81621 29004 ft 444 kts 216°
2026-05-04 12:44 49.11202 17.78937 29258 ft 445 kts 216°
2026-05-04 12:44 49.08667 17.76288 29581 ft 444 kts 216°
2026-05-04 12:45 49.06088 17.73595 29920 ft 443 kts 216°
2026-05-04 12:45 49.03550 17.70949 30231 ft 443 kts 216°
2026-05-04 12:45 49.01013 17.68308 30520 ft 443 kts 216°
2026-05-04 12:45 48.98444 17.65635 30807 ft 443 kts 216°
2026-05-04 12:46 48.95931 17.63024 31085 ft 443 kts 216°
2026-05-04 12:46 48.93383 17.60373 31385 ft 442 kts 216°
2026-05-04 12:46 48.90860 17.57758 31674 ft 442 kts 216°
2026-05-04 12:46 48.88320 17.55137 31959 ft 441 kts 216°
2026-05-04 12:47 48.85782 17.52521 32242 ft 441 kts 216°
2026-05-04 12:47 48.83268 17.49931 32510 ft 440 kts 216°
2026-05-04 12:47 48.80716 17.47304 32782 ft 440 kts 216°
2026-05-04 12:47 48.78215 17.44731 33045 ft 439 kts 216°
2026-05-04 12:48 48.75684 17.42128 33308 ft 438 kts 216°
2026-05-04 12:48 48.73180 17.39554 33555 ft 438 kts 216°
2026-05-04 12:48 48.70650 17.36959 33789 ft 437 kts 216°
2026-05-04 12:48 48.68131 17.34377 34019 ft 437 kts 215°
2026-05-04 12:49 48.65649 17.31835 34233 ft 437 kts 216°
2026-05-04 12:49 48.63138 17.29267 34416 ft 438 kts 215°
2026-05-04 12:49 48.60590 17.26665 34573 ft 439 kts 216°
2026-05-04 12:49 48.58047 17.24072 34728 ft 440 kts 216°
2026-05-04 12:50 48.55540 17.21518 34869 ft 440 kts 216°
2026-05-04 12:50 48.53004 17.18938 35012 ft 441 kts 216°
2026-05-04 12:50 48.50441 17.16332 35152 ft 441 kts 216°
2026-05-04 12:50 48.47908 17.13762 35281 ft 442 kts 216°
2026-05-04 12:51 48.45370 17.11190 35404 ft 442 kts 216°
2026-05-04 12:51 48.42808 17.08593 35528 ft 443 kts 216°
2026-05-04 12:51 48.40276 17.06030 35646 ft 443 kts 216°
2026-05-04 12:51 48.37710 17.03437 35754 ft 444 kts 216°
2026-05-04 12:52 48.35138 17.00839 35858 ft 444 kts 216°
2026-05-04 12:52 48.32587 16.98270 35961 ft 445 kts 216°
2026-05-04 12:52 48.30020 16.95686 36014 ft 446 kts 216°
2026-05-04 12:53 48.24927 16.90375 36014 ft 445 kts 218°
2026-05-04 12:53 48.19927 16.84898 36010 ft 445 kts 218°
2026-05-04 12:54 48.14948 16.79456 36010 ft 445 kts 218°
2026-05-04 12:54 48.09970 16.74022 36010 ft 445 kts 218°
2026-05-04 12:55 48.04972 16.68579 36006 ft 445 kts 218°
2026-05-04 12:55 48.00002 16.63178 36005 ft 445 kts 218°
2026-05-04 12:56 47.94975 16.57728 36003 ft 445 kts 218°
2026-05-04 12:56 47.89987 16.52336 35988 ft 445 kts 218°
2026-05-04 12:57 47.84982 16.46937 35998 ft 445 kts 218°
2026-05-04 12:57 47.79984 16.41557 35985 ft 445 kts 218°
2026-05-04 12:58 47.74958 16.36162 35986 ft 445 kts 219°
2026-05-04 12:58 47.69972 16.30821 35991 ft 445 kts 218°
2026-05-04 12:59 47.64937 16.25441 35999 ft 446 kts 218°
2026-05-04 12:59 47.59886 16.20060 36009 ft 446 kts 218°
2026-05-04 13:00 47.54869 16.14728 36012 ft 445 kts 218°
2026-05-04 13:00 47.49857 16.09411 36029 ft 445 kts 218°
2026-05-04 13:01 47.44833 16.04095 36031 ft 445 kts 218°
2026-05-04 13:01 47.39787 15.98768 36035 ft 445 kts 218°
2026-05-04 13:02 47.34778 15.93493 36027 ft 445 kts 218°
2026-05-04 13:02 47.29745 15.88204 36016 ft 445 kts 218°
2026-05-04 13:03 47.24707 15.82925 36026 ft 446 kts 218°
2026-05-04 13:03 47.19670 15.77661 36028 ft 445 kts 218°
2026-05-04 13:04 47.14615 15.72389 36022 ft 445 kts 218°
2026-05-04 13:04 47.09586 15.67154 36027 ft 444 kts 218°
2026-05-04 13:05 47.04549 15.61923 36031 ft 444 kts 218°
2026-05-04 13:05 46.99503 15.56696 36027 ft 444 kts 218°
2026-05-04 13:06 46.94454 15.51479 36028 ft 444 kts 218°
2026-05-04 13:06 46.89404 15.46271 36017 ft 444 kts 218°
2026-05-04 13:07 46.84355 15.41077 36017 ft 444 kts 218°
2026-05-04 13:07 46.79323 15.35910 36016 ft 443 kts 218°
2026-05-04 13:08 46.74291 15.30757 36023 ft 443 kts 217°
2026-05-04 13:08 46.69355 15.25447 36033 ft 441 kts 221°
2026-05-04 13:09 46.64847 15.19462 36053 ft 438 kts 227°
2026-05-04 13:09 46.60813 15.12767 36077 ft 436 kts 234°
2026-05-04 13:10 46.57318 15.05683 36078 ft 435 kts 237°
2026-05-04 13:10 46.53834 14.98417 36078 ft 434 kts 237°
2026-05-04 13:11 46.50366 14.91211 36077 ft 434 kts 237°
2026-05-04 13:11 46.46915 14.84063 36089 ft 434 kts 237°
2026-05-04 13:12 46.43436 14.76876 36103 ft 434 kts 237°
2026-05-04 13:12 46.39968 14.69730 36109 ft 433 kts 237°
2026-05-04 13:13 46.36511 14.62627 36111 ft 433 kts 237°
2026-05-04 13:13 46.33051 14.55534 36102 ft 433 kts 237°
2026-05-04 13:14 46.29553 14.48380 36093 ft 433 kts 237°
2026-05-04 13:14 46.26052 14.41238 36083 ft 433 kts 236°
2026-05-04 13:15 46.22583 14.34181 36080 ft 433 kts 236°
2026-05-04 13:15 46.19099 14.27111 36083 ft 433 kts 236°
2026-05-04 13:16 46.15575 14.19976 36091 ft 432 kts 236°
2026-05-04 13:16 46.12679 14.14125 36098 ft 432 kts 236°
2026-05-04 13:17 46.08615 14.05939 36105 ft 433 kts 235°
2026-05-04 13:17 46.05097 13.98871 36098 ft 433 kts 236°
2026-05-04 13:18 46.01590 13.91842 36094 ft 432 kts 236°
2026-05-04 13:18 45.98072 13.84806 36097 ft 432 kts 236°
2026-05-04 13:19 45.94563 13.77800 36096 ft 432 kts 236°
2026-05-04 13:19 45.91050 13.70810 36097 ft 431 kts 235°
2026-05-04 13:20 45.87401 13.64027 35803 ft 432 kts 231°
2026-05-04 13:20 45.85358 13.60800 35555 ft 432 kts 227°
2026-05-04 13:20 45.83227 13.57782 35310 ft 434 kts 225°
2026-05-04 13:20 45.80969 13.54918 35112 ft 435 kts 222°
2026-05-04 13:21 45.78585 13.52216 35084 ft 436 kts 219°
2026-05-04 13:21 45.73699 13.47089 35077 ft 436 kts 218°
2026-05-04 13:22 45.68811 13.41965 35075 ft 436 kts 218°
2026-05-04 13:22 45.63948 13.36882 35073 ft 435 kts 218°
2026-05-04 13:23 45.59055 13.31779 35072 ft 435 kts 217°
2026-05-04 13:23 45.54182 13.26710 35067 ft 434 kts 217°
2026-05-04 13:24 45.49308 13.21649 35069 ft 434 kts 217°
2026-05-04 13:24 45.44425 13.16591 35065 ft 435 kts 217°
2026-05-04 13:25 45.37098 13.09023 35063 ft 435 kts 217°
2026-05-04 13:25 45.32200 13.03975 35060 ft 434 kts 217°
2026-05-04 13:26 45.27304 12.98941 35063 ft 434 kts 217°
2026-05-04 13:26 45.22402 12.93913 35058 ft 434 kts 217°
2026-05-04 13:27 45.17524 12.88919 35051 ft 434 kts 217°
2026-05-04 13:27 45.12606 12.83896 35058 ft 435 kts 217°
2026-05-04 13:28 45.07701 12.78898 35056 ft 435 kts 217°
2026-05-04 13:28 45.02776 12.73888 35053 ft 436 kts 217°
2026-05-04 13:29 44.97855 12.68893 35041 ft 435 kts 217°
2026-05-04 13:29 44.92949 12.63924 35045 ft 435 kts 217°
2026-05-04 13:30 44.88044 12.58962 35043 ft 435 kts 217°
2026-05-04 13:30 44.83119 12.53996 35045 ft 434 kts 217°
2026-05-04 13:31 44.78343 12.48855 35049 ft 433 kts 222°
2026-05-04 13:31 44.73800 12.43263 35050 ft 433 kts 223°
2026-05-04 13:32 44.69287 12.37705 35048 ft 432 kts 223°
2026-05-04 13:32 44.64767 12.32145 35051 ft 433 kts 222°
2026-05-04 13:33 44.60258 12.26608 35056 ft 433 kts 222°
2026-05-04 13:33 44.55712 12.21040 35054 ft 432 kts 222°
2026-05-04 13:34 44.51177 12.15493 35058 ft 432 kts 223°
2026-05-04 13:34 44.46662 12.09985 35058 ft 431 kts 223°
2026-05-04 13:35 44.39914 12.01773 35061 ft 430 kts 223°
2026-05-04 13:36 44.35386 11.96277 35066 ft 430 kts 223°
2026-05-04 13:36 44.30862 11.90799 35067 ft 430 kts 223°
2026-05-04 13:37 44.26320 11.85307 35114 ft 431 kts 223°
2026-05-04 13:37 44.21789 11.79839 35082 ft 430 kts 223°
2026-05-04 13:38 44.17268 11.74396 35088 ft 429 kts 223°
2026-05-04 13:38 44.12755 11.68972 35091 ft 429 kts 223°
2026-05-04 13:39 44.08269 11.63592 35097 ft 428 kts 223°
2026-05-04 13:39 44.03737 11.58227 35104 ft 428 kts 221°
2026-05-04 13:40 43.98877 11.53387 35103 ft 431 kts 216°
2026-05-04 13:40 43.93638 11.49291 35109 ft 433 kts 211°
2026-05-04 13:41 43.88250 11.45453 35102 ft 432 kts 211°
2026-05-04 13:41 43.82946 11.41676 35108 ft 432 kts 211°
2026-05-04 13:42 43.74947 11.35996 35102 ft 430 kts 211°
2026-05-04 13:42 43.69607 11.32213 35096 ft 430 kts 211°
2026-05-04 13:43 43.64257 11.28434 35102 ft 430 kts 211°
2026-05-04 13:43 43.58939 11.24684 35110 ft 430 kts 211°
2026-05-04 13:44 43.53604 11.20925 35111 ft 430 kts 211°
2026-05-04 13:44 43.48306 11.17206 35111 ft 428 kts 212°
2026-05-04 13:45 43.43015 11.13495 35108 ft 427 kts 212°
2026-05-04 13:45 43.37727 11.09794 35106 ft 426 kts 212°
2026-05-04 13:46 43.32446 11.06107 35105 ft 426 kts 212°
2026-05-04 13:46 43.27177 11.02436 35104 ft 425 kts 212°
2026-05-04 13:47 43.21912 10.98769 35104 ft 425 kts 212°
2026-05-04 13:47 43.16631 10.95106 35104 ft 425 kts 213°
2026-05-04 13:48 43.11360 10.91450 35108 ft 424 kts 212°
2026-05-04 13:48 43.06088 10.87804 35105 ft 423 kts 213°
2026-05-04 13:49 43.00864 10.84197 35110 ft 421 kts 213°
2026-05-04 13:49 42.95610 10.80575 35105 ft 421 kts 213°
2026-05-04 13:50 42.90356 10.76960 35105 ft 422 kts 213°
2026-05-04 13:50 42.85122 10.73363 35104 ft 422 kts 213°
2026-05-04 13:51 42.79889 10.69775 35103 ft 422 kts 213°
2026-05-04 13:51 42.74581 10.66278 35102 ft 424 kts 210°
2026-05-04 13:52 42.66165 10.62382 35099 ft 431 kts 201°
2026-05-04 13:53 42.60374 10.60348 35099 ft 431 kts 201°
2026-05-04 13:53 42.54561 10.58304 35099 ft 431 kts 201°
2026-05-04 13:54 42.45853 10.55255 35097 ft 431 kts 201°
2026-05-04 13:55 42.37130 10.52210 35097 ft 432 kts 202°
2026-05-04 13:55 42.28388 10.49166 35098 ft 432 kts 202°
2026-05-04 13:56 42.22552 10.47142 35097 ft 432 kts 202°
2026-05-04 13:57 42.13847 10.44125 35097 ft 432 kts 202°
2026-05-04 13:58 42.02137 10.40398 35097 ft 433 kts 200°
2026-05-04 13:58 41.93325 10.37692 35070 ft 432 kts 200°
2026-05-04 13:59 41.87485 10.35892 35090 ft 433 kts 201°
2026-05-04 14:00 41.78670 10.33179 35070 ft 432 kts 200°
2026-05-04 14:00 41.72908 10.31414 34665 ft 422 kts 200°
2026-05-04 14:00 41.70053 10.30537 34423 ft 422 kts 200°
2026-05-04 14:01 41.67197 10.29660 34143 ft 421 kts 200°
2026-05-04 14:01 41.64359 10.28789 33737 ft 421 kts 200°
2026-05-04 14:01 41.58610 10.27023 32576 ft 424 kts 200°
2026-05-04 14:02 41.55768 10.26155 31896 ft 425 kts 200°
2026-05-04 14:02 41.52869 10.25271 31197 ft 424 kts 200°
2026-05-04 14:02 41.50021 10.24400 30479 ft 425 kts 200°
2026-05-04 14:02 41.47132 10.23517 29728 ft 426 kts 200°
2026-05-04 14:03 41.44236 10.22634 28969 ft 428 kts 199°
2026-05-04 14:03 41.41374 10.21760 28356 ft 425 kts 199°
2026-05-04 14:03 41.38499 10.20889 27800 ft 421 kts 199°
2026-05-04 14:03 41.35655 10.20026 27245 ft 418 kts 198°
2026-05-04 14:04 41.30038 10.18322 26114 ft 412 kts 198°
2026-05-04 14:04 41.27260 10.17482 25560 ft 409 kts 198°
2026-05-04 14:04 41.24541 10.16548 24989 ft 402 kts 205°
2026-05-04 14:05 41.20904 10.13086 24002 ft 383 kts 234°
2026-05-04 14:05 41.19211 10.09049 23240 ft 375 kts 250°
2026-05-04 14:05 41.18258 10.05897 22687 ft 374 kts 250°
2026-05-04 14:06 41.17289 10.02681 22148 ft 372 kts 250°
2026-05-04 14:06 41.16330 9.99509 21649 ft 370 kts 249°
2026-05-04 14:06 41.15372 9.96352 21150 ft 368 kts 249°
2026-05-04 14:06 41.14435 9.93272 20669 ft 365 kts 249°
2026-05-04 14:07 41.13477 9.90133 20160 ft 363 kts 249°
2026-05-04 14:07 41.12539 9.87065 19683 ft 361 kts 249°
2026-05-04 14:07 41.11609 9.84023 19207 ft 359 kts 249°
2026-05-04 14:07 41.10667 9.80949 18685 ft 357 kts 248°
2026-05-04 14:08 41.09745 9.77944 18150 ft 357 kts 248°
2026-05-04 14:08 41.08811 9.74901 17645 ft 356 kts 248°
2026-05-04 14:08 41.07872 9.71853 17151 ft 355 kts 248°
2026-05-04 14:08 41.06940 9.68827 16663 ft 352 kts 248°
2026-05-04 14:09 41.05106 9.62885 15756 ft 347 kts 248°
2026-05-04 14:09 41.04198 9.59946 15360 ft 343 kts 248°
2026-05-04 14:10 41.02431 9.54230 15023 ft 332 kts 248°
2026-05-04 14:10 41.01563 9.51428 14862 ft 328 kts 248°
2026-05-04 14:10 41.00696 9.48636 14687 ft 325 kts 248°
2026-05-04 14:10 40.99838 9.45874 14532 ft 323 kts 248°
2026-05-04 14:11 40.98985 9.43138 14373 ft 320 kts 246°
2026-05-04 14:11 40.96801 9.38190 13815 ft 306 kts 236°
2026-05-04 14:11 40.95610 9.35916 13500 ft 301 kts 236°
2026-05-04 14:12 40.94423 9.33666 13159 ft 296 kts 235°
2026-05-04 14:12 40.93267 9.31470 12818 ft 291 kts 235°
2026-05-04 14:12 40.90987 9.27144 12183 ft 282 kts 235°
2026-05-04 14:13 40.89875 9.25035 11867 ft 278 kts 235°
2026-05-04 14:13 40.88775 9.22949 11570 ft 273 kts 235°
2026-05-04 14:13 40.87706 9.20916 11270 ft 269 kts 236°
2026-05-04 14:13 40.86646 9.18902 10966 ft 265 kts 236°
2026-05-04 14:14 40.85605 9.16922 10665 ft 260 kts 236°
2026-05-04 14:14 40.83586 9.13096 10135 ft 250 kts 236°
2026-05-04 14:14 40.82596 9.11227 9845 ft 245 kts 236°
2026-05-04 14:15 40.80586 9.07616 8504 ft 253 kts 223°
2026-05-04 14:15 40.77266 9.07127 7732 ft 262 kts 155°
2026-05-04 14:16 40.74330 9.09924 7130 ft 256 kts 148°
2026-05-04 14:16 40.72893 9.11269 6868 ft 252 kts 148°
2026-05-04 14:17 40.70667 9.14693 6122 ft 263 kts 101°
2026-05-04 14:17 40.70912 9.17095 5736 ft 267 kts 65°
2026-05-04 14:17 40.73128 9.20942 5112 ft 264 kts 49°
2026-05-04 14:18 40.74380 9.22741 4815 ft 261 kts 47°
2026-05-04 14:18 40.76623 9.26406 4304 ft 252 kts 53°
2026-05-04 14:19 40.78614 9.30148 4103 ft 249 kts 56°
2026-05-04 14:19 40.79586 9.32028 3863 ft 250 kts 56°
2026-05-04 14:19 40.80555 9.33902 3485 ft 251 kts 56°
2026-05-04 14:19 40.81546 9.35812 3105 ft 253 kts 56°
2026-05-04 14:20 40.82545 9.37732 2717 ft 253 kts 56°
2026-05-04 14:20 40.83532 9.39625 2335 ft 251 kts 56°
2026-05-04 14:20 40.84510 9.41501 1950 ft 244 kts 56°
2026-05-04 14:21 40.86343 9.45012 1286 ft 216 kts 57°
2026-05-04 14:21 40.87162 9.46580 971 ft 199 kts 56°
2026-05-04 14:21 40.87949 9.48085 999 ft 210 kts 57°
2026-05-04 14:21 40.88768 9.49671 1924 ft 213 kts 57°
2026-05-04 14:22 40.89627 9.51330 2684 ft 222 kts 57°
2026-05-04 14:22 40.90505 9.53077 3072 ft 240 kts 57°
2026-05-04 14:22 40.91511 9.54913 3583 ft 253 kts 44°
2026-05-04 14:22 40.93058 9.55982 4323 ft 251 kts
2026-05-04 14:23 40.95948 9.54144 5001 ft 239 kts 294°
2026-05-04 14:23 40.96405 9.52071 5011 ft 235 kts 277°
2026-05-04 14:23 40.96645 9.49916 5004 ft 235 kts 273°
2026-05-04 14:24 40.96759 9.47793 5002 ft 234 kts 269°
2026-05-04 14:24 40.96761 9.45637 4998 ft 234 kts 265°
2026-05-04 14:24 40.96646 9.43486 4999 ft 233 kts 261°
2026-05-04 14:24 40.96407 9.41366 5009 ft 232 kts 257°
2026-05-04 14:25 40.96039 9.39295 5009 ft 231 kts 252°
2026-05-04 14:25 40.94944 9.35337 5004 ft 230 kts 244°
2026-05-04 14:25 40.94218 9.33458 4999 ft 230 kts 239°
2026-05-04 14:26 40.93372 9.31651 4992 ft 229 kts 234°
2026-05-04 14:26 40.92450 9.29900 4998 ft 229 kts 234°
2026-05-04 14:26 40.91538 9.28175 5006 ft 229 kts 234°
2026-05-04 14:26 40.90623 9.26443 5003 ft 229 kts 234°
2026-05-04 14:27 40.89717 9.24728 5002 ft 229 kts 234°
2026-05-04 14:27 40.88805 9.23001 5007 ft 229 kts 234°
2026-05-04 14:27 40.87822 9.21378 4861 ft 226 kts 219°
2026-05-04 14:27 40.86402 9.20528 4439 ft 229 kts 187°
2026-05-04 14:28 40.84833 9.20854 4095 ft 234 kts 155°
2026-05-04 14:28 40.83485 9.22069 3813 ft 234 kts 146°
2026-05-04 14:28 40.82154 9.23296 3751 ft 233 kts 148°
2026-05-04 14:28 40.80812 9.24496 3781 ft 234 kts 148°
2026-05-04 14:29 40.78408 9.27356 3785 ft 238 kts 115°
2026-05-04 14:29 40.78816 9.31388 3803 ft 232 kts 53°
2026-05-04 14:30 40.79821 9.33010 3695 ft 224 kts 50°
2026-05-04 14:30 40.80803 9.34572 3353 ft 221 kts 51°
2026-05-04 14:30 40.82520 9.37651 2753 ft 191 kts 56°
2026-05-04 14:31 40.83005 9.38588 2560 ft 184 kts 57°
2026-05-04 14:31 40.84579 9.41629 1922 ft 161 kts 57°
2026-05-04 14:32 40.85640 9.43665 1538 ft 160 kts 57°
2026-05-04 14:32 40.86479 9.45272 1211 ft 155 kts 57°
2026-05-04 14:32 40.87084 9.46432 972 ft 152 kts 57°
2026-05-04 14:32 40.87681 9.47574 740 ft 150 kts 57°
2026-05-04 14:33 40.88274 9.48702 496 ft 146 kts 57°
2026-05-04 14:33 40.88850 9.49799 324 ft 143 kts 57°
2026-05-04 14:33 40.89402 9.50862 85 ft 139 kts 57°
2026-05-04 14:33 40.89922 9.51869 50 ft 112 kts 53°
2026-05-04 14:34 40.90272 9.52532 49 ft 63 kts 55°
2026-05-04 14:34 40.90426 9.52828 49 ft 20 kts 56°
2026-05-04 14:34 40.90494 9.52920 49 ft 11 kts 17°
2026-05-04 14:34 40.90567 9.52885 49 ft 12 kts 304°
2026-05-04 14:35 40.90569 9.52776 49 ft 12 kts 257°
2026-05-04 14:35 40.90541 9.52662 49 ft 13 kts 239°
2026-05-04 14:35 40.90488 9.52558 49 ft 13 kts 234°
2026-05-04 14:35 40.90432 9.52452 49 ft 14 kts 235°
2026-05-04 14:36 40.90374 9.52339 49 ft 14 kts 235°
2026-05-04 14:36 40.90314 9.52227 49 ft 15 kts 234°
2026-05-04 14:36 40.90252 9.52109 49 ft 15 kts 234°
2026-05-04 14:36 40.90192 9.51992 50 ft 11 kts 236°
2026-05-04 14:37 40.90178 9.51900 50 ft 10 kts 275°
2026-05-04 14:37 40.90213 9.51815 50 ft 11 kts 319°
2026-05-04 14:37 40.90210 9.51736 50 ft 6 kts 237°
2026-05-04 14:37 40.90206 9.51695 50 ft 4 kts 318°
2026-05-04 14:38 40.90232 9.51670 50 ft 2 kts 325°
2026-05-04 14:38 40.90240 9.51663 50 ft 0 kts 326°